Location: La Silve
(44.2414°N, 5.8889°E)
Time: 09:37:15
(UTC+00:00)

Cosmos 2297 - Pass Details

Date: 01 December 2020
Orbit: 834 x 860 km, 71.0° (Epoch: 25 January)

Event Time Altitude Azimuth Distance (km) Brightness Sun altitude
Rises 16:47:18 0° 333° (NNW) 3,413 6.9 -8.6°
Reaches altitude 10° 16:49:45 10° 332° (NNW) 2,478 6.2 -9.0°
Maximum altitude 16:55:26 78° 248° (WSW) 875 3.9 -10.0°
Drops below altitude 10° 17:01:07 10° 162° (SSE) 2,478 6.2 -10.9°
Sets 17:03:34 0° 161° (SSE) 3,414 6.9 -11.3°
